{"data":{"norad_id":67256,"intl_designator":"2025-313J","name":"SITRO-AIS-57","alt_names":[],"object_type":"PAYLOAD","status":"ACTIVE","operator":null,"country":"CIS","launch_date":"2025-12-28","launch_site_code":"VOSTO","launch_vehicle":null,"mission":null,"orbit_class":"UNKNOWN","rcs_meters":null,"size_class":null,"mass_kg":null,"dimensions":null,"purposes":[],"wikipedia_slug":null,"has_3d_model":false,"image_url":null,"decayed_at":null,"tle_current":{"epoch":"2026-05-25T03:36:37.332576Z","epoch_age_seconds":55891,"freshness":"FRESH","line1":"1 67256U 25313J   26145.15043209  .00009152  00000+0  39403-3 0  9990","line2":"2 67256  97.3930 220.1005 0017310  85.5108 274.8105 15.22688352 22449","mean_motion":15.22688352,"eccentricity":0.001731,"inclination_deg":97.393,"raan_deg":220.1005,"arg_perigee_deg":85.5108,"mean_anomaly_deg":274.8105,"bstar":0.00039403,"rev_number":2244,"period_min":94.569581366312,"perigee_km":485.83351265755,"apogee_km":509.63778376566,"semimajor_km":6875.8726482116,"source":"CELESTRAK","updated_at":"2026-05-25T13:38:06.845954Z"}}}